Weather History for LIPX - June, 2013

Change the Weather History Date:

Saturday, June 15, 2013

  Actual Average Record
Temperature  
Mean Temperature 78 °F -  
Max Temperature 89 °F 82 °F 93 °F (2003)
Min Temperature 67 °F 62 °F 50 °F (2008)
Cooling Degree Days 13    
Growing Degree Days 28 (Base 50)    
Moisture  
Dew Point 61 °F    
Average Humidity 55    
Maximum Humidity 83    
Minimum Humidity 26    
Precipitation  
Precipitation 0.00 in 0.10 in - ()
Sea Level Pressure  
Sea Level Pressure 29.98 in    
Wind  
Wind Speed 3 mph ()    
Max Wind Speed 7 mph    
Max Gust Speed -    
Visibility 6.0 miles    
Events      
Averages and records for this station are not official NWS values.
T = Trace of Precipitation, MM = Missing Value Source: Averaged Metar Reports

Daily Weather History Graph

Daily Weather History Graph

Search for Another Location

Airport or City:

Trip Planner

Search our weather history database for the weather conditions in past years. The results will help you decide how hot, cold, wet, or windy it might be!

Date:

Astronomy

Jun. 15, 2013 Rise Set
Actual Time 5:27 AM CEST 9:06 PM CEST
Civil Twilight 4:49 AM CEST 9:44 PM CEST
Nautical Twilight 3:59 AM CEST 10:34 PM CEST
Astronomical Twilight 2:51 AM CEST 11:42 PM CEST
Moon 12:02 PM CEST (6/15) 12:18 AM CEST (6/15)
Length of Visible Light 16h 54m
Length of Day
15h 39m
Waxing Crescent, 37% of the Moon is Illuminated
Jun 15
Waxing Crescent
Jun 16
First Quarter
Jun 23
Full
Jun 30
Last Quarter
Jul 8
New

Hourly Weather History & Observations

Time (CEST) Temp. Heat Index Dew Point Humidity Pressure Visibility Wind Dir Wind Speed Gust Speed Precip Events Conditions
12:15 AM 73.4 °F - 60.8 °F 65% 30.01 in - North 1.2 mph - N/A   Clear
12:45 AM 73.4 °F - 60.8 °F 65% 30.01 in - Calm Calm - N/A   Clear
1:15 AM 73.4 °F - 60.8 °F 65% 30.01 in - Calm Calm - N/A   Clear
1:45 AM 71.6 °F - 60.8 °F 69% 29.98 in - North 5.8 mph - N/A   Clear
2:00 AM 72 °F - 61 °F 60% 29.99 in 6 mi North 5.8 mph - -   Partly Cloudy
2:15 AM 71.6 °F - 60.8 °F 69% 29.98 in 6.2 mi NNW 5.8 mph - N/A   Partly Cloudy
2:45 AM 71.6 °F - 62.6 °F 73% 29.98 in 6.2 mi NNW 4.6 mph - N/A   Scattered Clouds
3:15 AM 71.6 °F - 62.6 °F 73% 29.98 in 6.2 mi NNW 3.5 mph - N/A   Scattered Clouds
3:45 AM 71.6 °F - 62.6 °F 73% 29.98 in 6.2 mi NNE 3.5 mph - N/A   Partly Cloudy
4:15 AM 71.6 °F - 62.6 °F 73% 29.98 in 6.2 mi North 4.6 mph - N/A   Partly Cloudy
4:45 AM 69.8 °F - 62.6 °F 78% 29.98 in 6.2 mi NNW 3.5 mph - N/A   Partly Cloudy
5:00 AM 69 °F - 63 °F 74% 29.99 in 6 mi NNW 3.5 mph - -   Scattered Clouds
5:15 AM 69.8 °F - 64.4 °F 83% 29.98 in 6.2 mi NNW 4.6 mph - N/A   Partly Cloudy
5:45 AM 68.0 °F - 62.6 °F 83% 29.98 in 6.2 mi NNW 5.8 mph - N/A   Partly Cloudy
6:15 AM 69.8 °F - 62.6 °F 78% 29.98 in 6.2 mi NNW 5.8 mph - N/A   Scattered Clouds
6:45 AM 69.8 °F - 62.6 °F 78% 29.98 in 6.2 mi NNW 4.6 mph - N/A   Scattered Clouds
7:15 AM 71.6 °F - 62.6 °F 73% 30.01 in 6.2 mi NNW 5.8 mph - N/A   Scattered Clouds
7:45 AM 71.6 °F - 62.6 °F 73% 30.01 in 5.0 mi NNW 5.8 mph - N/A   Partly Cloudy
8:00 AM 72 °F - 63 °F 67% 30.01 in 5 mi NNW 5.8 mph - -   Mist
8:15 AM 75.2 °F - 64.4 °F 69% 30.01 in - North 4.6 mph - N/A   Clear
8:45 AM 77.0 °F - 62.6 °F 61% 30.01 in - NW 1.2 mph - N/A   Clear
9:15 AM 78.8 °F - 62.6 °F 57% 30.01 in - SSW 2.3 mph - N/A   Clear
9:45 AM 80.6 °F 81.8 °F 62.6 °F 54% 30.01 in - SW 3.5 mph - N/A   Clear
10:15 AM 80.6 °F 81.5 °F 60.8 °F 51% 30.01 in - West 3.5 mph - N/A   Clear
10:45 AM 82.4 °F 83.4 °F 62.6 °F 51% 30.01 in - SSW 3.5 mph - N/A   Clear
11:00 AM 82 °F - 64 °F 44% 30.00 in 6 mi SSW 3.5 mph - -  
11:15 AM 82.4 °F 83.4 °F 62.6 °F 51% 30.01 in - West 2.3 mph - N/A   Clear
11:45 AM 82.4 °F 82.9 °F 60.8 °F 48% 30.01 in - SSW 1.2 mph - N/A   Clear
12:15 PM 84.2 °F 85.0 °F 62.6 °F 48% 30.01 in - West 4.6 mph - N/A   Clear
12:45 PM 86.0 °F 86.1 °F 60.8 °F 43% 30.01 in - SE 4.6 mph - N/A   Clear
1:15 PM 86.0 °F 84.9 °F 57.2 °F 37% 30.01 in - West 3.5 mph - N/A   Clear
1:45 PM 86.0 °F 84.9 °F 57.2 °F 37% 30.01 in - South 5.8 mph - N/A   Clear
2:00 PM 87 °F - 57 °F 26% 30.00 in 6 mi South 5.8 mph - -  
2:15 PM 86.0 °F 85.4 °F 59.0 °F 40% 30.01 in - South 4.6 mph - N/A   Clear
2:45 PM 87.8 °F 86.5 °F 57.2 °F 35% 29.98 in - South 6.9 mph - N/A   Clear
3:15 PM 87.8 °F 86.5 °F 57.2 °F 35% 29.98 in - SSW 5.8 mph - N/A   Clear
3:45 PM 87.8 °F 86.5 °F 57.2 °F 35% 29.98 in - SE 3.5 mph - N/A   Clear
4:15 PM 87.8 °F 87.1 °F 59.0 °F 38% 29.98 in - SW 4.6 mph - N/A   Clear
4:45 PM 87.8 °F 87.1 °F 59.0 °F 38% 29.98 in - South 3.5 mph - N/A   Clear
5:00 PM 88 °F - 58 °F 26% 29.97 in 6 mi South 3.5 mph - -  
5:15 PM 87.8 °F 87.1 °F 59.0 °F 38% 29.95 in - SW 3.5 mph - N/A   Clear
5:45 PM 87.8 °F 87.1 °F 59.0 °F 38% 29.95 in - WSW 4.6 mph - N/A   Clear
6:15 PM 87.8 °F 87.1 °F 59.0 °F 38% 29.95 in - West 1.2 mph - N/A   Clear
6:45 PM 87.8 °F 87.6 °F 60.8 °F 40% 29.95 in - WNW 3.5 mph - N/A   Clear
7:15 PM 87.8 °F 87.6 °F 60.8 °F 40% 29.95 in - West 3.5 mph - N/A   Clear
7:45 PM 87.8 °F 88.5 °F 62.6 °F 43% 29.95 in - Calm Calm - N/A   Clear
8:00 PM 88 °F - 62 °F 32% 29.95 in 6 mi Calm Calm - -   Partly Cloudy
8:15 PM 86.0 °F 86.1 °F 60.8 °F 43% 29.95 in - ENE 3.5 mph - N/A   Clear
8:45 PM 86.0 °F 86.6 °F 62.6 °F 45% 29.95 in - ENE 2.3 mph - N/A   Clear
9:15 PM 84.2 °F 85.0 °F 62.6 °F 48% 29.95 in - East 3.5 mph - N/A   Clear
9:45 PM 82.4 °F 83.9 °F 64.4 °F 54% 29.95 in - East 3.5 mph - N/A   Clear
10:15 PM 80.6 °F 82.3 °F 64.4 °F 58% 29.95 in - North 2.3 mph - N/A   Clear
10:45 PM 78.8 °F - 64.4 °F 61% 29.95 in - North 2.3 mph - N/A   Clear
11:00 PM 79 °F - 64 °F 51% 29.96 in 6 mi North 2.3 mph - -  
11:15 PM 77.0 °F - 64.4 °F 65% 29.98 in - NNW 3.5 mph - N/A   Clear
11:45 PM 75.2 °F - 64.4 °F 69% 29.98 in - ENE 4.6 mph - N/A   Clear